• In Germany
  • List of Countries
  • For 7 days
  • Water Temperature
  • Satellite Maps
  • Weather Map
  • Weather Widgets
  • user-avatar
    Login

    Hourly Weather Amar

    Today, 26 September, Tuesday

    Time Temperature Precipitation Wind Pressure Humidity
    00:00 +32°C° 0 mm 1 mps 752 mmHg 52%
    01:00 +31°C° 0 mm 1 mps 752 mmHg 51%
    02:00 +31°C° 0 mm 1 mps 752 mmHg 50%
    03:00 +31°C° 0 mm 1 mps 752 mmHg 49%
    04:00 +31°C° 0 mm 2 mps 752 mmHg 48%
    05:00 +31°C° 0 mm 2 mps 752 mmHg 46%
    06:00 +31°C° 0 mm 2 mps 752 mmHg 45%
    07:00 +34°C° 0 mm 2 mps 753 mmHg 39%
    08:00 +36°C° 0 mm 3 mps 753 mmHg 33%
    09:00 +38°C° 0 mm 3 mps 753 mmHg 27%
    10:00 +39°C° 0 mm 3 mps 753 mmHg 24%
    11:00 +40°C° 0 mm 3 mps 753 mmHg 21%
    12:00 +42°C° 0 mm 3 mps 753 mmHg 18%
    13:00 +43°C° 0 mm 3 mps 752 mmHg 18%
    14:00 +43°C° 0 mm 3 mps 752 mmHg 18%
    15:00 +43°C° 0 mm 3 mps 752 mmHg 18%
    16:00 +40°C° 0 mm 3 mps 752 mmHg 22%
    17:00 +39°C° 0 mm 3 mps 752 mmHg 26%
    18:00 +37°C° 0 mm 2 mps 752 mmHg 30%
    19:00 +36°C° 0 mm 2 mps 752 mmHg 33%
    20:00 +36°C° 0 mm 2 mps 752 mmHg 36%
    21:00 +35°C° 0 mm 2 mps 753 mmHg 39%
    22:00 +35°C° 0 mm 2 mps 753 mmHg 42%
    23:00 +34°C° 0 mm 2 mps 753 mmHg 44%

    Tomorrow, 27 September, Wednesday

    Time Temperature Precipitation Wind Pressure Humidity
    00:00 +34°C° 0 mm 2 mps 753 mmHg 46%
    01:00 +32°C° 0 mm 2 mps 753 mmHg 47%
    02:00 +32°C° 0 mm 2 mps 752 mmHg 48%
    03:00 +31°C° 0 mm 1 mps 752 mmHg 48%
    04:00 +31°C° 0 mm 1 mps 753 mmHg 46%
    05:00 +31°C° 0 mm 1 mps 753 mmHg 44%
    06:00 +31°C° 0 mm 1 mps 753 mmHg 42%
    07:00 +33°C° 0 mm 1 mps 754 mmHg 38%
    08:00 +35°C° 0 mm 1 mps 754 mmHg 33%
    09:00 +37°C° 0 mm 1 mps 755 mmHg 29%
    10:00 +39°C° 0 mm 1 mps 754 mmHg 27%
    11:00 +39°C° 0 mm 1 mps 754 mmHg 25%
    12:00 +40°C° 0 mm 2 mps 754 mmHg 23%
    13:00 +41°C° 0 mm 2 mps 753 mmHg 23%
    14:00 +41°C° 0 mm 2 mps 753 mmHg 23%
    15:00 +42°C° 0 mm 3 mps 752 mmHg 22%
    16:00 +39°C° 0 mm 3 mps 752 mmHg 26%
    17:00 +38°C° 0 mm 3 mps 752 mmHg 30%
    18:00 +37°C° 0 mm 3 mps 752 mmHg 34%
    19:00 +36°C° 0 mm 2 mps 753 mmHg 37%
    20:00 +36°C° 0 mm 2 mps 753 mmHg 40%
    21:00 +35°C° 0 mm 2 mps 754 mmHg 43%
    22:00 +34°C° 0 mm 2 mps 753 mmHg 46%
    23:00 +34°C° 0 mm 2 mps 753 mmHg 48%

    Day after tomorrow, 28 September, Thursday

    Time Temperature Precipitation Wind Pressure Humidity
    00:00 +32°C° 0 mm 2 mps 753 mmHg 51%
    01:00 +32°C° 0 mm 2 mps 753 mmHg 51%
    02:00 +32°C° 0 mm 1 mps 752 mmHg 51%
    03:00 +31°C° 0 mm 1 mps 752 mmHg 50%
    04:00 +31°C° 0 mm 1 mps 753 mmHg 49%
    05:00 +31°C° 0 mm 2 mps 753 mmHg 48%
    06:00 +31°C° 0 mm 2 mps 753 mmHg 47%
    07:00 +34°C° 0 mm 2 mps 754 mmHg 41%
    08:00 +36°C° 0 mm 2 mps 754 mmHg 36%
    09:00 +38°C° 0 mm 2 mps 754 mmHg 30%
    10:00 +39°C° 0 mm 2 mps 754 mmHg 27%
    11:00 +40°C° 0 mm 2 mps 754 mmHg 23%
    12:00 +41°C° 0 mm 1 mps 753 mmHg 20%
    13:00 +41°C° 0 mm 2 mps 753 mmHg 18%
    14:00 +42°C° 0 mm 2 mps 752 mmHg 17%
    15:00 +42°C° 0 mm 2 mps 752 mmHg 15%
    16:00 +41°C° 0 mm 2 mps 752 mmHg 19%
    17:00 +39°C° 0 mm 2 mps 752 mmHg 22%
    18:00 +37°C° 0 mm 3 mps 752 mmHg 25%
    19:00 +37°C° 0 mm 2 mps 753 mmHg 28%
    20:00 +36°C° 0 mm 2 mps 753 mmHg 30%
    21:00 +34°C° 0 mm 1 mps 753 mmHg 32%
    22:00 +33°C° 0 mm 1 mps 753 mmHg 33%
    23:00 +32°C° 0 mm 1 mps 753 mmHg 34%

    29 September, Friday

    Time Temperature Precipitation Wind Pressure Humidity
    00:00 +30°C° 0 mm 0 mps 752 mmHg 35%
    01:00 +32°C° 0 mm 1 mps 752 mmHg 34%
    02:00 +32°C° 0 mm 2 mps 752 mmHg 33%
    03:00 +32°C° 0 mm 2 mps 752 mmHg 32%
    04:00 +33°C° 0 mm 3 mps 752 mmHg 31%
    05:00 +33°C° 0 mm 3 mps 752 mmHg 31%
    06:00 +33°C° 0 mm 3 mps 753 mmHg 31%
    07:00 +35°C° 0 mm 3 mps 753 mmHg 27%
    08:00 +37°C° 0 mm 3 mps 753 mmHg 23%
    09:00 +39°C° 0 mm 3 mps 753 mmHg 19%
    10:00 +40°C° 0 mm 3 mps 753 mmHg 18%
    11:00 +41°C° 0 mm 2 mps 753 mmHg 16%
    12:00 +42°C° 0 mm 2 mps 752 mmHg 15%
    13:00 +42°C° 0 mm 2 mps 752 mmHg 15%
    14:00 +43°C° 0 mm 3 mps 751 mmHg 15%
    15:00 +43°C° 0 mm 3 mps 751 mmHg 15%
    16:00 +42°C° 0 mm 3 mps 751 mmHg 20%
    17:00 +39°C° 0 mm 3 mps 751 mmHg 24%
    18:00 +38°C° 0 mm 3 mps 751 mmHg 29%
    19:00 +37°C° 0 mm 2 mps 752 mmHg 32%
    20:00 +36°C° 0 mm 2 mps 752 mmHg 35%
    21:00 +35°C° 0 mm 2 mps 752 mmHg 38%
    22:00 +33°C° 0 mm 1 mps 752 mmHg 41%
    23:00 +32°C° 0 mm 1 mps 752 mmHg 43%

    30 September, Saturday

    Time Temperature Precipitation Wind Pressure Humidity
    00:00 +30°C° 0 mm 0 mps 752 mmHg 46%
    01:00 +31°C° 0 mm 1 mps 752 mmHg 46%
    02:00 +31°C° 0 mm 1 mps 752 mmHg 46%
    03:00 +31°C° 0 mm 1 mps 752 mmHg 45%
    04:00 +31°C° 0 mm 1 mps 752 mmHg 44%
    05:00 +31°C° 0 mm 2 mps 752 mmHg 44%
    06:00 +31°C° 0 mm 2 mps 753 mmHg 43%
    07:00 +34°C° 0 mm 2 mps 753 mmHg 38%
    08:00 +36°C° 0 mm 2 mps 753 mmHg 33%
    09:00 +38°C° 0 mm 2 mps 754 mmHg 28%
    10:00 +39°C° 0 mm 2 mps 753 mmHg 26%
    11:00 +40°C° 0 mm 2 mps 753 mmHg 24%
    12:00 +41°C° 0 mm 2 mps 753 mmHg 21%
    13:00 +42°C° 0 mm 3 mps 752 mmHg 21%
    14:00 +42°C° 0 mm 3 mps 752 mmHg 22%
    15:00 +42°C° 0 mm 4 mps 752 mmHg 22%
    16:00 +41°C° 0 mm 4 mps 752 mmHg 27%
    17:00 +38°C° 0 mm 4 mps 752 mmHg 32%
    18:00 +37°C° 0 mm 4 mps 752 mmHg 37%
    19:00 +37°C° 0 mm 4 mps 753 mmHg 39%
    20:00 +36°C° 0 mm 4 mps 753 mmHg 40%
    21:00 +36°C° 0 mm 3 mps 753 mmHg 41%
    22:00 +35°C° 0 mm 3 mps 753 mmHg 42%
    23:00 +35°C° 0 mm 3 mps 753 mmHg 43%

    1 October, Sunday

    Time Temperature Precipitation Wind Pressure Humidity
    00:00 +34°C° 0 mm 2 mps 753 mmHg 44%
    01:00 +34°C° 0 mm 2 mps 753 mmHg 45%
    02:00 +32°C° 0 mm 1 mps 753 mmHg 45%
    03:00 +31°C° 0 mm 1 mps 753 mmHg 46%
    04:00 +31°C° 0 mm 1 mps 753 mmHg 46%
    05:00 +31°C° 0 mm 1 mps 754 mmHg 46%
    06:00 +31°C° 0 mm 1 mps 754 mmHg 47%
    07:00 +32°C° 0 mm 1 mps 754 mmHg 42%
    08:00 +34°C° 0 mm 1 mps 755 mmHg 38%
    09:00 +36°C° 0 mm 1 mps 755 mmHg 34%
    10:00 +37°C° 0 mm 1 mps 755 mmHg 31%
    11:00 +39°C° 0 mm 2 mps 754 mmHg 28%
    12:00 +41°C° 0 mm 2 mps 754 mmHg 25%
    13:00 +42°C° 0 mm 3 mps 753 mmHg 23%
    14:00 +42°C° 0 mm 3 mps 753 mmHg 21%
    15:00 +43°C° 0 mm 4 mps 753 mmHg 19%
    16:00 +41°C° 0 mm 4 mps 753 mmHg 24%
    17:00 +38°C° 0 mm 4 mps 753 mmHg 29%
    18:00 +37°C° 0 mm 4 mps 753 mmHg 34%
    19:00 +36°C° 0 mm 3 mps 753 mmHg 37%
    20:00 +35°C° 0 mm 3 mps 753 mmHg 40%
    21:00 +35°C° 0 mm 3 mps 753 mmHg 43%
    22:00 +34°C° 0 mm 2 mps 753 mmHg 44%
    23:00 +32°C° 0 mm 2 mps 753 mmHg 46%
    Show more